2018-092D (44042 NORAD) Tracking and Keplerian Element Data

This shows tracking and keplerian element data for the satellite.

Feedback or suggestion? Click here.




ElementValue
Catalog44042
Name2018-092D
Epoch Orbit1697
Epoch Day65.50338694
Epoch Year2019
RAAN154.9295
Inclination51.6417
Eccentricity0.0004212
Argument of Perigee85.2961
Mean Anonmoly274.8497
Mean Motion15.3645176
Decay Rate1.649E-05
L11 44042U 18092D 19065.50338694 .00001649 00000-0 56382-4 0 9991
L22 44042 51.6417 154.9295 0004212 85.2961 274.8497 15.36451760 16977

Live tracking and technical data element details for 2018-092D (NORAD 44042). 2018-092D can be tracked NOW for your location showing map with azimuth and elevation plus other details from your city location.

Track the satellite on the map from your city or location and see movement details for azimuth, elevation, latitude, longitude, range, height, and movement on the map or in text.







IsCatalogInMostPopularTable: catalog: 44042, numindb: 65
Update: records affected: 1



GetName: 44042 2018-092D

Hit Count: updated at: Mon, 22 Jul 2019 03:44:14 GMT